Atkins, VA

7:29 AM EDT on August 24, 2016 (GMT -0400)
Mountain Empire

Weather History for KMKJ - March, 2013

Change the Weather History Date:

Monday, March 4, 2013

  Actual Average (KGEV) Record (KGEV)
Temperature  
Mean Temperature 34 °F -  
Max Temperature 44 °F 53 °F 77 °F (1976)
Min Temperature 24 °F 31 °F 10 °F (2002)
Degree Days  
Heating Degree Days 31    
Moisture  
Dew Point 15 °F    
Average Humidity 50    
Maximum Humidity 79    
Minimum Humidity 30    
Precipitation  
Precipitation 0.00 in - - ()
Sea Level Pressure  
Sea Level Pressure 30.03 in    
Wind  
Wind Speed 13 mph (West)    
Max Wind Speed 24 mph    
Max Gust Speed 33 mph    
Visibility 10 miles    
Events Snow    
Averages and records for this station are not official NWS values.
T = Trace of Precipitation, MM = Missing Value Source: NWS Daily Summary

Daily Weather History Graph

Daily Weather History Graph

Search for Another Location

Airport or City:

Trip Planner

Search our weather history database for the weather conditions in past years. The results will help you decide how hot, cold, wet, or windy it might be!

Date:

Astronomy

Mar. 04, 2013 Rise Set
Actual Time 6:51 AM EST 6:22 PM EST
Civil Twilight 6:25 AM EST 6:48 PM EST
Nautical Twilight 5:55 AM EST 7:18 PM EST
Astronomical Twilight 5:25 AM EST 7:48 PM EST
Moon 12:53 AM EST (3/4) 11:09 AM EST (3/4)
Length of Visible Light 12h 22m
Length of Day
11h 31m
Waning Gibbous, 52% of the Moon is Illuminated
Mar 4
Waning Gibbous
Mar 4
Last Quarter
Mar 11
New
Mar 19
First Quarter
Mar 27
Full

Hourly Weather History & Observations

Time (EST) Temp. Windchill Dew Point Humidity Pressure Visibility Wind Dir Wind Speed Gust Speed Precip Events Conditions
12:15 AM 25.3 °F 13.1 °F 17.2 °F 71% 29.96 in 10.0 mi West 15.0 mph 25.3 mph N/A Snow Light Snow
12:35 AM 25.3 °F 13.6 °F 15.4 °F 66% 29.96 in 10.0 mi West 13.8 mph 24.2 mph N/A   Overcast
12:55 AM 25.3 °F 13.6 °F 16.2 °F 68% 29.97 in 10.0 mi WSW 13.8 mph 19.6 mph N/A   Overcast
1:15 AM 25.0 °F 13.1 °F 18.5 °F 76% 29.97 in 7.0 mi West 13.8 mph 23.0 mph N/A Snow Light Snow
1:35 AM 24.8 °F 12.4 °F 19.2 °F 79% 29.98 in 5.0 mi West 15.0 mph 21.9 mph N/A Snow Light Snow
1:55 AM 25.3 °F 12.6 °F 16.7 °F 70% 29.98 in 10.0 mi West 16.1 mph 25.3 mph N/A Snow Light Snow
2:15 AM 25.3 °F 11.0 °F 16.2 °F 68% 29.98 in 10.0 mi West 20.7 mph 33.4 mph N/A   Overcast
2:55 AM 25.2 °F 11.6 °F 14.7 °F 65% 29.99 in 10.0 mi West 18.4 mph 24.2 mph N/A Snow Light Snow
3:15 AM 25.0 °F 9.9 °F 13.8 °F 63% 29.99 in 10.0 mi West 23.0 mph 28.8 mph N/A   Overcast
3:35 AM 24.6 °F 13.8 °F 13.6 °F 63% 30.00 in 10.0 mi West 11.5 mph 21.9 mph N/A   Overcast
3:55 AM 24.6 °F 12.7 °F 12.7 °F 61% 30.00 in 10.0 mi West 13.8 mph 25.3 mph N/A   Overcast
4:15 AM 24.6 °F 11.3 °F 13.1 °F 62% 30.00 in 10.0 mi West 17.3 mph 28.8 mph N/A   Overcast
4:35 AM 24.8 °F 15.3 °F 13.8 °F 63% 30.01 in 10.0 mi WSW 9.2 mph 24.2 mph N/A   Overcast
4:55 AM 24.8 °F 12.9 °F 14.0 °F 64% 30.02 in 10.0 mi West 13.8 mph 21.9 mph N/A   Overcast
5:15 AM 24.8 °F 14.6 °F 14.4 °F 65% 30.02 in 10.0 mi West 10.4 mph 26.5 mph N/A   Overcast
5:35 AM 24.8 °F 14.6 °F 14.5 °F 65% 30.02 in 10.0 mi West 10.4 mph 20.7 mph N/A   Overcast
5:55 AM 24.8 °F 13.4 °F 15.1 °F 67% 30.03 in 10.0 mi WSW 12.7 mph 25.3 mph N/A   Overcast
6:15 AM 24.8 °F 13.4 °F 15.4 °F 68% 30.03 in 10.0 mi West 12.7 mph 20.7 mph N/A   Overcast
6:55 AM 24.8 °F 11.5 °F 15.6 °F 68% 30.05 in 10.0 mi WSW 17.3 mph 27.6 mph N/A   Overcast
7:15 AM 25.0 °F 14.2 °F 15.4 °F 67% 30.06 in 10.0 mi West 11.5 mph 19.6 mph N/A   Overcast
7:35 AM 25.5 °F 15.5 °F 15.4 °F 66% 30.06 in 10.0 mi West 10.4 mph 19.6 mph N/A   Overcast
7:55 AM 25.3 °F 11.4 °F 15.6 °F 67% 30.06 in 10.0 mi West 19.6 mph 24.2 mph N/A   Overcast
8:15 AM 26.4 °F 13.2 °F 15.8 °F 64% 30.08 in 10.0 mi West 18.4 mph 24.2 mph N/A   Overcast
8:35 AM 27.9 °F 16.3 °F 16.5 °F 62% 30.09 in 10.0 mi West 15.0 mph 25.3 mph N/A   Overcast
8:55 AM 28.0 °F 13.6 °F 16.2 °F 61% 30.08 in 10.0 mi West 24.2 mph 31.1 mph N/A   Mostly Cloudy
9:15 AM 28.4 °F 16.6 °F 16.0 °F 60% 30.08 in 10.0 mi WNW 16.1 mph 29.9 mph N/A   Scattered Clouds
9:35 AM 28.9 °F 15.8 °F 15.8 °F 58% 30.08 in 10.0 mi West 20.7 mph 31.1 mph N/A   Scattered Clouds
9:55 AM 29.8 °F 17.3 °F 15.6 °F 56% 30.08 in 10.0 mi West 19.6 mph 31.1 mph N/A   Clear
10:15 AM 31.1 °F 19.3 °F 15.3 °F 52% 30.08 in 10.0 mi West 18.4 mph 26.5 mph N/A   Clear
10:35 AM 31.8 °F 22.8 °F 15.4 °F 51% 30.08 in 10.0 mi WNW 11.5 mph 25.3 mph N/A   Clear
10:55 AM 32.2 °F 22.3 °F 13.1 °F 45% 30.08 in 10.0 mi West 13.8 mph 28.8 mph N/A   Clear
11:15 AM 33.4 °F 23.5 °F 11.1 °F 40% 30.07 in 10.0 mi WNW 15.0 mph 23.0 mph N/A   Clear
11:35 AM 35.2 °F 25.0 °F 9.7 °F 35% 30.07 in 10.0 mi WNW 17.3 mph 20.7 mph N/A   Clear
11:55 AM 36.1 °F 29.3 °F 9.0 °F 32% 30.07 in 10.0 mi WNW 9.2 mph 21.9 mph N/A   Clear
12:15 PM 38.5 °F 30.3 °F 9.5 °F 30% 30.07 in 10.0 mi West 13.8 mph 19.6 mph N/A   Clear
12:55 PM 39.7 °F 34.3 °F 10.0 °F 30% 30.06 in 10.0 mi WNW 8.1 mph 19.6 mph N/A   Clear
1:15 PM 41.2 °F 37.3 °F 13.6 °F 33% 30.05 in 10.0 mi SW 5.8 mph - N/A   Clear
1:55 PM 41.9 °F 35.4 °F 14.4 °F 33% 30.03 in 10.0 mi WSW 11.5 mph - N/A   Clear
2:15 PM 42.6 °F 35.6 °F 14.2 °F 32% 30.02 in 10.0 mi WSW 13.8 mph 19.6 mph N/A   Clear
2:35 PM 43.3 °F 36.8 °F 14.4 °F 31% 30.02 in 10.0 mi WSW 12.7 mph 18.4 mph N/A   Clear
2:55 PM 43.0 °F 36.0 °F 13.6 °F 30% 30.02 in 10.0 mi WSW 13.8 mph 19.6 mph N/A   Clear
3:15 PM 43.2 °F 36.6 °F 13.6 °F 30% 30.02 in 10.0 mi SW 12.7 mph 19.6 mph N/A   Clear
3:35 PM 43.9 °F 37.9 °F 14.0 °F 30% 30.02 in 10.0 mi SW 11.5 mph - N/A   Clear
3:55 PM 44.1 °F 38.1 °F 14.0 °F 30% 30.01 in 10.0 mi WSW 11.5 mph - N/A   Clear
4:15 PM 44.4 °F 39.0 °F 15.1 °F 31% 30.02 in 10.0 mi SW 10.4 mph 16.1 mph N/A   Clear
4:35 PM 43.7 °F 39.1 °F 14.9 °F 31% 30.02 in 10.0 mi WSW 8.1 mph - N/A   Clear
4:55 PM 43.3 °F 39.2 °F 14.9 °F 32% 30.02 in 10.0 mi SW 6.9 mph - N/A   Clear
5:15 PM 43.7 °F 37.7 °F 15.1 °F 32% 30.02 in 10.0 mi West 11.5 mph - N/A   Clear
5:35 PM 43.0 °F 38.2 °F 14.2 °F 31% 30.02 in 10.0 mi WSW 8.1 mph - N/A   Clear
5:55 PM 41.9 °F 36.3 °F 14.4 °F 33% 30.03 in 10.0 mi WSW 9.2 mph - N/A   Clear
6:15 PM 40.1 °F 34.1 °F 14.9 °F 36% 30.03 in 10.0 mi WSW 9.2 mph - N/A   Clear
6:35 PM 39.7 °F 35.6 °F 15.1 °F 37% 30.04 in 10.0 mi WSW 5.8 mph - N/A   Clear
6:55 PM 39.6 °F 35.4 °F 15.1 °F 37% 30.04 in 10.0 mi WSW 5.8 mph - N/A   Scattered Clouds
7:15 PM 39.2 °F 34.2 °F 14.5 °F 37% 30.04 in 10.0 mi WSW 6.9 mph - N/A   Mostly Cloudy
7:35 PM 38.1 °F 32.9 °F 16.3 °F 41% 30.05 in 10.0 mi West 6.9 mph - N/A   Overcast
7:55 PM 37.4 °F 32.1 °F 17.4 °F 44% 30.04 in 10.0 mi WSW 6.9 mph - N/A   Scattered Clouds
8:15 PM 36.7 °F 31.2 °F 18.5 °F 48% 30.05 in 10.0 mi West 6.9 mph - N/A   Clear
8:35 PM 37.8 °F 33.3 °F 17.2 °F 43% 30.04 in 10.0 mi West 5.8 mph - N/A   Scattered Clouds
8:55 PM 37.4 °F 32.8 °F 16.9 °F 43% 30.04 in 10.0 mi West 5.8 mph - N/A   Scattered Clouds
9:35 PM 35.8 °F 30.9 °F 19.2 °F 51% 30.04 in 10.0 mi West 5.8 mph - N/A   Overcast
9:55 PM 34.9 °F 30.8 °F 19.4 °F 53% 30.04 in 10.0 mi West 4.6 mph - N/A   Mostly Cloudy
10:15 PM 35.6 °F 31.7 °F 18.5 °F 50% 30.03 in 10.0 mi West 4.6 mph - N/A   Overcast
10:35 PM 34.7 °F 30.6 °F 21.7 °F 59% 30.02 in 10.0 mi West 4.6 mph - N/A   Overcast
10:55 PM 34.7 °F 29.6 °F 21.0 °F 57% 30.02 in 10.0 mi West 5.8 mph - N/A   Mostly Cloudy
11:15 PM 35.6 °F 29.9 °F 20.3 °F 54% 30.03 in 10.0 mi West 6.9 mph - N/A   Scattered Clouds
11:35 PM 35.6 °F 30.7 °F 21.0 °F 55% 30.02 in 10.0 mi West 5.8 mph - N/A   Mostly Cloudy